TimeEDT,TemperatureF,Dew PointF,Humidity,Sea Level PressureIn,VisibilityMPH,Wind Direction,Wind SpeedMPH,Gust SpeedMPH,PrecipitationIn,Events,Conditions,WindDirDegrees,DateUTC
12:53 AM,77.0,73.9,90,29.81,6.0,SW,8.1,-,N/A,,Clear,220,2013-07-20 04:53:00
1:53 AM,77.0,73.9,90,29.80,5.0,SW,12.7,-,N/A,,Clear,230,2013-07-20 05:53:00
2:53 AM,75.9,73.0,91,29.78,5.0,SW,10.4,-,N/A,,Clear,230,2013-07-20 06:53:00
3:53 AM,75.9,73.0,91,29.77,5.0,SW,11.5,19.6,N/A,,Clear,220,2013-07-20 07:53:00
4:10 AM,75.2,73.4,94,29.77,5.0,SW,11.5,19.6,N/A,,Partly Cloudy,230,2013-07-20 08:10:00
4:53 AM,75.9,73.0,91,29.77,5.0,SW,13.8,19.6,N/A,,Clear,230,2013-07-20 08:53:00
5:37 AM,75.2,73.4,94,29.77,3.0,SW,10.4,-,N/A,,Partly Cloudy,230,2013-07-20 09:37:00
5:53 AM,75.9,73.9,94,29.77,3.0,SW,9.2,17.3,N/A,,Partly Cloudy,230,2013-07-20 09:53:00
6:44 AM,75.2,73.4,94,29.78,3.0,SW,11.5,-,N/A,,Mostly Cloudy,220,2013-07-20 10:44:00
6:53 AM,75.9,73.9,94,29.78,4.0,SW,11.5,-,N/A,,Scattered Clouds,230,2013-07-20 10:53:00
7:02 AM,77.0,73.4,89,29.78,4.0,SW,10.4,-,N/A,,Mostly Cloudy,220,2013-07-20 11:02:00
7:53 AM,78.1,73.9,87,29.79,5.0,SW,12.7,-,N/A,,Mostly Cloudy,220,2013-07-20 11:53:00
8:00 AM,78.8,73.4,83,29.79,5.0,SW,11.5,-,N/A,,Haze,230,2013-07-20 12:00:00
8:53 AM,81.0,73.9,79,29.79,6.0,SW,13.8,23.0,N/A,,Haze,230,2013-07-20 12:53:00
9:53 AM,82.0,75.0,79,29.78,6.0,SW,11.5,-,N/A,,Haze,230,2013-07-20 13:53:00
10:53 AM,82.9,75.0,77,29.77,6.0,SW,13.8,21.9,N/A,,Haze,230,2013-07-20 14:53:00
11:53 AM,82.0,73.9,76,29.76,7.0,SW,16.1,25.3,N/A,,Clear,230,2013-07-20 15:53:00
12:53 PM,82.9,73.9,74,29.75,7.0,SW,15.0,26.5,N/A,,Clear,230,2013-07-20 16:53:00
1:53 PM,82.0,73.0,74,29.73,8.0,SW,20.7,26.5,N/A,,Clear,220,2013-07-20 17:53:00
2:53 PM,81.0,73.9,79,29.72,4.0,WSW,19.6,28.8,N/A,,Haze,240,2013-07-20 18:53:00
3:53 PM,81.0,73.9,79,29.71,7.0,SW,18.4,28.8,N/A,,Haze,220,2013-07-20 19:53:00
4:53 PM,81.0,73.9,79,29.73,7.0,SW,16.1,25.3,N/A,,Haze,230,2013-07-20 20:53:00
5:53 PM,81.0,73.9,79,29.73,8.0,SW,13.8,20.7,N/A,,Haze,220,2013-07-20 21:53:00
6:53 PM,78.1,73.9,87,29.74,6.0,SW,16.1,21.9,N/A,,Haze,220,2013-07-20 22:53:00
7:53 PM,75.9,73.0,91,29.75,5.0,SW,11.5,17.3,N/A,,Haze,230,2013-07-20 23:53:00
8:53 PM,75.9,73.0,91,29.77,6.0,SW,8.1,-,N/A,,Clear,230,2013-07-21 00:53:00
9:53 PM,78.1,73.0,84,29.79,8.0,WSW,8.1,-,N/A,,Clear,240,2013-07-21 01:53:00
10:53 PM,77.0,73.0,88,29.81,8.0,West,9.2,-,N/A,,Partly Cloudy,280,2013-07-21 02:53:00
11:03 PM,75.2,73.4,94,29.82,7.0,West,10.4,18.4,N/A,,Partly Cloudy,280,2013-07-21 03:03:00
11:53 PM,75.0,73.0,94,29.81,6.0,WSW,6.9,-,N/A,,Clear,240,2013-07-21 03:53:00